Pellston, MI

10:49 PM EDT on June 24, 2017 (GMT -0400)
Pellston Regional Airport Of Emmet County

Weather History for KPLN - October, 2013

Change the Weather History Date:

Saturday, October 12, 2013

  Actual Average Record
Temperature  
Mean Temperature 58 °F -  
Max Temperature 80 °F 56 °F 80 °F (2013)
Min Temperature 37 °F 38 °F 23 °F (1958)
Degree Days  
Heating Degree Days 7    
Growing Degree Days 8 (Base 50)    
Moisture  
Dew Point 46 °F    
Average Humidity 69    
Maximum Humidity 96    
Minimum Humidity 31    
Precipitation  
Precipitation 0.05 in - - ()
Sea Level Pressure  
Sea Level Pressure 30.02 in    
Wind  
Wind Speed 3 mph (South)    
Max Wind Speed 13 mph    
Max Gust Speed 29 mph    
Visibility 10 miles    
Events Rain    
Averages and records for this station are not official NWS values.
T = Trace of Precipitation, MM = Missing Value Source: NWS Daily Summary

Daily Weather History Graph

Daily Weather History Graph

Search for Another Location

Airport or City:

Trip Planner

Search our weather history database for the weather conditions in past years. The results will help you decide how hot, cold, wet, or windy it might be!

Date:

Astronomy

Oct. 12, 2013 Rise Set
Actual Time 7:51 AM EDT 6:58 PM EDT
Civil Twilight 7:22 AM EDT 7:28 PM EDT
Nautical Twilight 6:47 AM EDT 8:02 PM EDT
Astronomical Twilight 6:13 AM EDT 8:36 PM EDT
Moon 3:24 PM EDT (10/12) 12:36 AM EDT (10/12)
Length of Visible Light 12h 06m
Length of Day
11h 06m
First Quarter, 58% of the Moon is Illuminated
Oct 12
First Quarter
Oct 18
Full
Oct 26
Last Quarter
Nov 3
New
Nov 10
First Quarter

Hourly Weather History & Observations

Time (EDT) Temp. Dew Point Humidity Pressure Visibility Wind Dir Wind Speed Gust Speed Precip Events Conditions
12:54 AM 41.0 °F 39.0 °F 93% 30.08 in 10.0 mi Calm Calm - N/A   Clear
1:54 AM 39.9 °F 37.9 °F 93% 30.08 in 9.0 mi Calm Calm - N/A   Clear
2:54 AM 39.9 °F 37.9 °F 93% 30.08 in 10.0 mi Calm Calm - N/A   Clear
3:54 AM 39.0 °F 37.0 °F 93% 30.07 in 10.0 mi Calm Calm - N/A   Clear
4:54 AM 39.0 °F 37.0 °F 93% 30.07 in 10.0 mi Calm Calm - N/A   Clear
5:54 AM 39.0 °F 37.0 °F 93% 30.06 in 10.0 mi Calm Calm - N/A   Clear
6:54 AM 37.0 °F 36.0 °F 96% 30.07 in 10.0 mi Calm Calm - N/A   Clear
7:54 AM 39.0 °F 37.0 °F 93% 30.06 in 10.0 mi Calm Calm - N/A   Clear
8:54 AM 46.0 °F 42.1 °F 86% 30.06 in 10.0 mi Calm Calm - N/A   Clear
9:54 AM 60.1 °F 46.9 °F 62% 30.05 in 10.0 mi SSE 8.1 mph - N/A   Clear
10:54 AM 64.9 °F 46.0 °F 50% 30.05 in 10.0 mi SSE 6.9 mph - N/A   Clear
11:54 AM 70.0 °F 48.0 °F 46% 30.03 in 10.0 mi SE 9.2 mph - N/A   Clear
12:54 PM 75.0 °F 50.0 °F 41% 30.01 in 10.0 mi SE 11.5 mph - N/A   Clear
1:54 PM 78.1 °F 48.0 °F 35% 29.99 in 10.0 mi South 12.7 mph 20.7 mph N/A   Clear
2:54 PM 79.0 °F 48.0 °F 34% 29.96 in 10.0 mi South 9.2 mph 25.3 mph N/A   Clear
3:54 PM 79.0 °F 46.0 °F 31% 29.95 in 10.0 mi SSE 11.5 mph 28.8 mph N/A   Clear
4:54 PM 78.1 °F 46.0 °F 32% 29.94 in 10.0 mi South 8.1 mph - N/A   Clear
5:54 PM 75.9 °F 48.0 °F 37% 29.95 in 10.0 mi SSW 4.6 mph - N/A   Clear
6:54 PM 72.0 °F 48.9 °F 44% 29.97 in 10.0 mi SSW 3.5 mph - N/A   Mostly Cloudy
7:54 PM 66.0 °F 55.9 °F 70% 29.99 in 10.0 mi Calm Calm - N/A   Partly Cloudy
8:54 PM 63.0 °F 55.0 °F 75% 30.01 in 10.0 mi Calm Calm - N/A   Mostly Cloudy
9:54 PM 61.0 °F 57.9 °F 90% 30.01 in 10.0 mi West 4.6 mph - 0.05 in Rain Light Rain
10:54 PM 63.0 °F 59.0 °F 87% 30.00 in 10.0 mi SW 8.1 mph - 0.00 in   Mostly Cloudy
11:18 PM 62.6 °F 59.0 °F 88% 30.01 in 10.0 mi SSW 8.1 mph - N/A   Overcast
11:54 PM 63.0 °F 57.0 °F 81% 30.01 in 10.0 mi West 12.7 mph 19.6 mph N/A   Overcast